FLOCK 2K-22 (42861 NORAD) Tracking and Keplerian Element Data

This shows tracking and keplerian element data for the satellite.

Feedback or suggestion? Click here.




ElementValue
Catalog42861
NameFLOCK 2K-22
Epoch Orbit15581
Epoch Day114.90478557
Epoch Year2020
RAAN347.4415
Inclination96.9013
Eccentricity0.0009036
Argument of Perigee153.6718
Mean Anonmoly206.4993
Mean Motion15.44546631
Decay Rate7.634E-05
L11 42861U 17042AN 20114.90478557 .00007634 00000-0 16597-3 0 9999
L22 42861 96.9013 347.4415 0009036 153.6718 206.4993 15.44546631155810



Live tracking and technical data element details for FLOCK 2K-22 (NORAD 42861). FLOCK 2K-22 can be tracked NOW for your location showing map with azimuth and elevation plus other details from your city location.







IsCatalogInMostPopularTable: catalog: 42861, numindb: 600
Update: records affected: 1



GetName: 42861 FLOCK 2K-22

Hit Count: updated at: Sat, 24 May 2025 15:52:26 GMT